When you browse on this site, cookies collect data to enhance your experience and personalize the content and advertising you see.
Visit our Privacy Policy to learn more. By continuing to use the site, you agree to this use of cookies and data.
  • In Österreich
  • Länderverzeichnis
  • Für 7 Tage
  • Wassertemperatur
  • Wetterkarte
  • News
  • Widgets
  • user-avatar
    Anmelden

    Stündliche Wetter Smolan

    Heute, 19 Februar, Mittwoch

    Zeit Temperatur Niederschläge Wind Luftdruck Luftfeuchtigkeit
    00:00 +3°C° 0 mm 1 m/S 655 mmHg 78%
    01:00 +3°C° 0 mm 1 m/S 655 mmHg 79%
    02:00 +3°C° 0 mm 1 m/S 655 mmHg 81%
    03:00 +3°C° 0 mm 1 m/S 655 mmHg 83%
    04:00 +3°C° 0 mm 1 m/S 655 mmHg 84%
    05:00 +2°C° 0 mm 1 m/S 655 mmHg 86%
    06:00 +3°C° 0 mm 1 m/S 655 mmHg 86%
    07:00 +2°C° 0 mm 0 m/S 655 mmHg 86%
    08:00 +2°C° 0 mm 0 m/S 655 mmHg 86%
    09:00 +4°C° 0 mm 1 m/S 655 mmHg 80%
    10:00 +6°C° 0 mm 1 m/S 656 mmHg 74%
    11:00 +7°C° 0 mm 1 m/S 656 mmHg 68%
    12:00 +7°C° 0 mm 1 m/S 656 mmHg 68%
    13:00 +6°C° 0 mm 2 m/S 655 mmHg 69%
    14:00 +7°C° 0 mm 2 m/S 655 mmHg 69%
    15:00 +6°C° 0 mm 2 m/S 654 mmHg 72%
    16:00 +7°C° 0 mm 1 m/S 654 mmHg 76%
    17:00 +6°C° 0 mm 1 m/S 653 mmHg 79%
    18:00 +5°C° 0 mm 1 m/S 653 mmHg 83%
    19:00 +4°C° 0 mm 1 m/S 653 mmHg 88%
    20:00 +2°C° 0 mm 0 m/S 652 mmHg 93%
    21:00 +2°C° 0 mm 0 m/S 652 mmHg 92%
    22:00 +3°C° 0 mm 1 m/S 652 mmHg 92%
    23:00 +3°C° 0 mm 1 m/S 652 mmHg 92%

    Morgen, 20 Februar, Donnerstag

    Zeit Temperatur Niederschläge Wind Luftdruck Luftfeuchtigkeit
    00:00 +1°C° 0 mm 0 m/S 652 mmHg 92%
    01:00 +1°C° 0 mm 0 m/S 651 mmHg 92%
    02:00 +1°C° 0 mm 0 m/S 651 mmHg 92%
    03:00 +1°C° 0.1 mm 0 m/S 651 mmHg 93%
    04:00 +1°C° 0.1 mm 0 m/S 651 mmHg 93%
    05:00 +1°C° 0.1 mm 0 m/S 650 mmHg 94%
    06:00 +1°C° 0.3 mm 0 m/S 651 mmHg 94%
    07:00 +2°C° 0.3 mm 1 m/S 651 mmHg 94%
    08:00 +2°C° 0.3 mm 1 m/S 651 mmHg 95%
    09:00 +2°C° 0.5 mm 1 m/S 651 mmHg 94%
    10:00 +2°C° 0.5 mm 1 m/S 651 mmHg 94%
    11:00 +3°C° 0.5 mm 1 m/S 652 mmHg 93%
    12:00 +3°C° 0.4 mm 1 m/S 652 mmHg 92%
    13:00 +2°C° 0.4 mm 2 m/S 651 mmHg 92%
    14:00 +2°C° 0.4 mm 2 m/S 651 mmHg 91%
    15:00 +2°C° 0.2 mm 2 m/S 651 mmHg 90%
    16:00 +1°C° 0.2 mm 2 m/S 651 mmHg 89%
    17:00 +1°C° 0.2 mm 2 m/S 651 mmHg 88%
    18:00 +1°C° 0.1 mm 2 m/S 651 mmHg 89%
    19:00 -1°C° 0.1 mm 2 m/S 652 mmHg 90%
    20:00 -2°C° 0.1 mm 2 m/S 652 mmHg 91%
    21:00 -2°C° 0 mm 2 m/S 652 mmHg 91%
    22:00 -2°C° 0 mm 2 m/S 652 mmHg 90%
    23:00 -2°C° 0 mm 2 m/S 652 mmHg 89%

    übermorgen, 21 Februar, Freitag

    Zeit Temperatur Niederschläge Wind Luftdruck Luftfeuchtigkeit
    00:00 -2°C° 0.1 mm 2 m/S 652 mmHg 88%
    01:00 -3°C° 0.1 mm 2 m/S 653 mmHg 87%
    02:00 -3°C° 0.1 mm 2 m/S 653 mmHg 86%
    03:00 -3°C° 0 mm 2 m/S 653 mmHg 86%
    04:00 -3°C° 0 mm 2 m/S 653 mmHg 86%
    05:00 -3°C° 0 mm 2 m/S 653 mmHg 86%
    06:00 -3°C° 0 mm 2 m/S 653 mmHg 85%
    07:00 -3°C° 0 mm 2 m/S 653 mmHg 84%
    08:00 -3°C° 0 mm 2 m/S 654 mmHg 83%
    15:00 +3°C° 0 mm 2 m/S 656 mmHg 66%
    16:00 +2°C° 0 mm 2 m/S 656 mmHg 68%
    17:00 +3°C° 0 mm 1 m/S 656 mmHg 69%
    18:00 +2°C° 0 mm 1 m/S 656 mmHg 75%
    19:00 0°C° 0 mm 1 m/S 656 mmHg 81%
    20:00 -1°C° 0 mm 1 m/S 656 mmHg 87%
    21:00 -1°C° 0 mm 1 m/S 656 mmHg 86%
    22:00 -1°C° 0 mm 1 m/S 656 mmHg 85%
    23:00 -2°C° 0 mm 1 m/S 656 mmHg 84%

    22 Februar, Samstag

    Zeit Temperatur Niederschläge Wind Luftdruck Luftfeuchtigkeit
    00:00 -2°C° 0 mm 1 m/S 656 mmHg 83%
    01:00 -1°C° 0 mm 1 m/S 656 mmHg 82%
    02:00 -1°C° 0 mm 1 m/S 657 mmHg 81%
    03:00 -2°C° 0 mm 1 m/S 656 mmHg 79%
    04:00 -2°C° 0 mm 1 m/S 656 mmHg 78%
    05:00 -2°C° 0 mm 1 m/S 656 mmHg 77%
    06:00 -4°C° 0 mm 2 m/S 656 mmHg 72%
    07:00 -4°C° 0 mm 2 m/S 656 mmHg 67%
    08:00 -4°C° 0 mm 2 m/S 657 mmHg 63%
    09:00 -4°C° 0 mm 3 m/S 657 mmHg 60%
    10:00 -2°C° 0 mm 3 m/S 657 mmHg 57%
    11:00 -3°C° 0 mm 4 m/S 658 mmHg 55%
    12:00 -3°C° 0.2 mm 4 m/S 658 mmHg 57%
    13:00 -2°C° 0.2 mm 4 m/S 658 mmHg 60%
    14:00 -2°C° 0.2 mm 4 m/S 658 mmHg 63%
    15:00 -3°C° 0.7 mm 4 m/S 658 mmHg 68%
    16:00 -3°C° 0.7 mm 4 m/S 658 mmHg 74%
    17:00 -4°C° 0.7 mm 4 m/S 658 mmHg 79%
    18:00 -4°C° 0.2 mm 4 m/S 658 mmHg 82%
    19:00 -5°C° 0.2 mm 3 m/S 658 mmHg 85%
    20:00 -6°C° 0.2 mm 3 m/S 659 mmHg 89%
    21:00 -6°C° 0 mm 3 m/S 659 mmHg 88%
    22:00 -5°C° 0 mm 2 m/S 659 mmHg 88%
    23:00 -5°C° 0 mm 2 m/S 659 mmHg 88%

    23 Februar, Sonntag

    Zeit Temperatur Niederschläge Wind Luftdruck Luftfeuchtigkeit
    00:00 -5°C° 0 mm 2 m/S 659 mmHg 87%
    01:00 -6°C° 0 mm 2 m/S 659 mmHg 86%
    02:00 -6°C° 0 mm 2 m/S 659 mmHg 86%
    03:00 -6°C° 0 mm 2 m/S 659 mmHg 84%
    04:00 -6°C° 0 mm 2 m/S 658 mmHg 82%
    05:00 -4°C° 0 mm 1 m/S 658 mmHg 80%
    06:00 -4°C° 0 mm 1 m/S 658 mmHg 74%
    07:00 -3°C° 0 mm 1 m/S 659 mmHg 68%
    08:00 -2°C° 0 mm 1 m/S 659 mmHg 62%
    09:00 0°C° 0 mm 1 m/S 659 mmHg 55%
    10:00 +2°C° 0 mm 1 m/S 660 mmHg 47%
    11:00 +5°C° 0 mm 1 m/S 660 mmHg 40%
    12:00 +6°C° 0 mm 1 m/S 660 mmHg 41%
    13:00 +5°C° 0 mm 2 m/S 660 mmHg 41%
    14:00 +6°C° 0 mm 2 m/S 660 mmHg 41%
    15:00 +5°C° 0 mm 2 m/S 659 mmHg 48%
    16:00 +5°C° 0 mm 1 m/S 658 mmHg 54%
    17:00 +5°C° 0 mm 1 m/S 658 mmHg 60%
    18:00 +4°C° 0 mm 1 m/S 657 mmHg 61%
    19:00 +3°C° 0 mm 1 m/S 657 mmHg 61%
    20:00 +1°C° 0 mm 2 m/S 657 mmHg 62%
    21:00 +1°C° 0 mm 2 m/S 657 mmHg 61%
    22:00 +1°C° 0 mm 2 m/S 657 mmHg 60%
    23:00 +1°C° 0 mm 2 m/S 657 mmHg 59%

    24 Februar, Montag

    Zeit Temperatur Niederschläge Wind Luftdruck Luftfeuchtigkeit
    00:00 +1°C° 0 mm 2 m/S 656 mmHg 61%
    01:00 +2°C° 0 mm 2 m/S 656 mmHg 62%
    02:00 +2°C° 0 mm 2 m/S 656 mmHg 63%
    03:00 +2°C° 0 mm 2 m/S 655 mmHg 62%
    04:00 +3°C° 0 mm 1 m/S 654 mmHg 62%
    05:00 +3°C° 0 mm 1 m/S 654 mmHg 61%
    06:00 +3°C° 0 mm 1 m/S 654 mmHg 61%
    07:00 +3°C° 0 mm 1 m/S 653 mmHg 61%
    08:00 +4°C° 0 mm 1 m/S 653 mmHg 61%
    09:00 +6°C° 0 mm 1 m/S 653 mmHg 56%
    10:00 +9°C° 0 mm 1 m/S 654 mmHg 50%
    11:00 +11°C° 0 mm 1 m/S 654 mmHg 45%
    12:00 +12°C° 0 mm 2 m/S 654 mmHg 44%
    13:00 +13°C° 0 mm 2 m/S 654 mmHg 42%
    14:00 +13°C° 0 mm 2 m/S 654 mmHg 41%
    15:00 +10°C° 0 mm 2 m/S 654 mmHg 48%
    16:00 +8°C° 0 mm 3 m/S 653 mmHg 56%
    17:00 +7°C° 0 mm 3 m/S 653 mmHg 63%
    18:00 +4°C° 0 mm 3 m/S 654 mmHg 66%
    19:00 +2°C° 0 mm 3 m/S 654 mmHg 69%
    20:00 -1°C° 0 mm 4 m/S 654 mmHg 71%
    21:00 -2°C° 0 mm 4 m/S 655 mmHg 71%
    22:00 -2°C° 0 mm 3 m/S 655 mmHg 71%
    23:00 -4°C° 0 mm 3 m/S 656 mmHg 71%
    Mehr zeigen